Location: Grand Moustoir
(47.8355°N, 3.3120°W)
Time: 17:46:52
(UTC+00:00)

Cosmos 1624 Rocket - Pass Details

Date: 20 January 2020
Orbit: 758 x 783 km, 74.0° (Epoch: 18 February)

Event Time Altitude Azimuth Distance (km) Brightness Sun altitude
Exits shadow 06:32:00 - 339° (NNW) 2,910 6.7 -13.6°
Reaches altitude 10° 06:33:33 10° 341° (NNW) 2,310 6.2 -13.3°
Maximum altitude 06:38:47 73° 66° (ENE) 800 4.2 -12.5°
Drops below altitude 10° 06:43:58 10° 151° (SSE) 2,284 7.2 -11.6°
Sets 06:46:19 0° 153° (SSE) 3,204 7.9 -11.3°
